Pagrindinis puslapis
METAR-TAF:

METAR-TAF

Oro uostai :

Aghajari, Iranas

platuma: 30-46N, ilguma: 049-40E, Aukštis: 29 m

Dabartinis oras

Ataskaita buvo paskelbta 6 valandos ir 1 minutes, ne 17:00 UTC
Vėjas 4 kt iš Rytų/Pietryčių
Temperatūra 33°C
Drėgmė 26%
Slėgis 1004 hPa
Matomumas 10 km arba daugiau
nėra debesų žemiau 1500 m ir nėra kamuolinių lietaus debesų

METAR: OIAG 271700Z 12004KT CAVOK 33/11 Q1004

Laikas: 02:31 (23:01 UTC)


TAF: trūkstamas

Orai ataskaitas ir orų prognozės (METAR, TAF).

turimą stotys yra geltonos ir raudonos taškus žemėlapyje.

Perkelti pele per norėdami pamatyti stoties vardą.

Tada spustelėkite, norėdami matyti oro stebėjimo ir prognozės.

Norėdami pakeisti žemėlapį: spustelėkite ant žalios mygtukų su juodo kryžiaus žemyn,; žalią mygtuką su brūkšneliu, jei norite nutolinti; arba žalių rodyklių gretimoms žemėlapius.


METAR-TAF: